Weather History for PHNY - April, 2014

Change the Weather History Date:

Sunday, April 27, 2014

  Actual Average Record
Temperature  
Mean Temperature 73 °F -  
Max Temperature 81 °F 79 °F 82 °F (1990)
Min Temperature 64 °F 62 °F 59 °F (1951)
Cooling Degree Days 8    
Growing Degree Days 23 (Base 50)    
Moisture  
Dew Point 66 °F    
Average Humidity 82    
Maximum Humidity 100    
Minimum Humidity 58    
Precipitation  
Precipitation 0.00 in - - ()
Sea Level Pressure  
Sea Level Pressure 30.03 in    
Wind  
Wind Speed 14 mph (NE)    
Max Wind Speed 24 mph    
Max Gust Speed 30 mph    
Visibility 10 miles    
Events      
Averages and records for this station are not official NWS values.
T = Trace of Precipitation, MM = Missing Value Source: NWS Daily Summary

Daily Weather History Graph

Daily Weather History Graph

Search for Another Location

Airport or City:

Trip Planner

Search our weather history database for the weather conditions in past years. The results will help you decide how hot, cold, wet, or windy it might be!

Date:

Astronomy

Apr. 27, 2014 Rise Set
Actual Time 6:00 AM HST 6:50 PM HST
Civil Twilight 5:37 AM HST 7:14 PM HST
Nautical Twilight 5:09 AM HST 7:41 PM HST
Astronomical Twilight 4:42 AM HST 8:08 PM HST
Moon 4:54 AM HST (4/27) 5:45 PM HST (4/27)
Length of Visible Light 13h 36m
Length of Day
12h 50m
Waning Crescent, 2% of the Moon is Illuminated
Apr 27
Waning Crescent
Apr 28
New
May 6
First Quarter
May 14
Full
May 21
Last Quarter

Hourly Weather History & Observations

Time (HST) Temp. Heat Index Dew Point Humidity Pressure Visibility Wind Dir Wind Speed Gust Speed Precip Events Conditions
12:04 AM 69.8 °F - 64.4 °F 83% 30.11 in 10.0 mi NNE 19.6 mph 23.0 mph N/A   Overcast
12:17 AM 69.8 °F - 64.4 °F 83% 30.11 in 10.0 mi NE 24.2 mph 29.9 mph N/A   Mostly Cloudy
12:56 AM 68.9 °F - 64.9 °F 87% 30.03 in 10.0 mi NE 23.0 mph 28.8 mph N/A   Partly Cloudy
1:56 AM 68.9 °F - 63.9 °F 84% 30.02 in 10.0 mi ENE 19.6 mph 27.6 mph N/A   Clear
2:56 AM 66.9 °F - 63.9 °F 90% 30.01 in 10.0 mi ENE 13.8 mph - N/A   Clear
3:56 AM 66.9 °F - 65.8 °F 96% 30.00 in 10.0 mi ENE 12.7 mph - N/A   Clear
4:56 AM 66.9 °F - 65.8 °F 96% 30.01 in 10.0 mi NE 9.2 mph - N/A   Clear
5:56 AM 66.9 °F - 66.9 °F 100% 30.00 in 10.0 mi NE 15.0 mph - N/A   Clear
6:56 AM 66.9 °F - 65.8 °F 96% 30.03 in 10.0 mi NE 5.8 mph - N/A   Clear
7:56 AM 73.9 °F - 63.9 °F 71% 30.04 in 10.0 mi Calm Calm - N/A   Clear
8:16 AM 77.0 °F - 64.4 °F 65% 30.10 in 10.0 mi ENE 3.5 mph - N/A   Mostly Cloudy
8:56 AM 75.9 °F - 65.8 °F 71% 30.04 in 10.0 mi NNE 15.0 mph - N/A   Mostly Cloudy
9:56 AM 77.0 °F - 64.9 °F 66% 30.04 in 10.0 mi NNE 11.5 mph - N/A   Scattered Clouds
10:56 AM 81.0 °F 82.7 °F 64.9 °F 58% 30.02 in 10.0 mi NNE 10.4 mph - N/A   Scattered Clouds
11:56 AM 74.8 °F - 65.8 °F 73% 30.02 in 10.0 mi NNE 17.3 mph - N/A   Overcast
12:09 PM 78.8 °F - 66.2 °F 65% 30.07 in 10.0 mi NNE 17.3 mph 24.2 mph N/A   Overcast
12:27 PM 73.4 °F - 66.2 °F 78% 30.08 in 10.0 mi SW 11.5 mph - N/A   Overcast
12:56 PM 73.9 °F - 64.9 °F 73% 30.02 in 10.0 mi SW 6.9 mph - N/A   Overcast
1:56 PM 73.4 °F - 69.8 °F 88% 30.05 in 10.0 mi North 6.9 mph - N/A   Overcast
2:08 PM 73.4 °F - 69.8 °F 88% 30.05 in 10.0 mi North 9.2 mph - 0.00 in   Overcast
2:36 PM 73.4 °F - 69.8 °F 88% 30.03 in 10.0 mi NNE 11.5 mph - 0.00 in   Overcast
2:56 PM 75.9 °F - 68.9 °F 79% 29.97 in 10.0 mi NE 18.4 mph 21.9 mph 0.00 in   Partly Cloudy
3:56 PM 75.9 °F - 66.9 °F 74% 29.95 in 10.0 mi NE 17.3 mph - N/A   Clear
4:56 PM 75.9 °F - 64.9 °F 69% 29.95 in 10.0 mi NE 23.0 mph - N/A   Clear
5:56 PM 72.9 °F - 64.9 °F 76% 29.96 in 10.0 mi ENE 13.8 mph 23.0 mph N/A   Clear
6:34 PM 71.6 °F - 64.4 °F 78% 30.04 in 10.0 mi East 9.2 mph - N/A   Mostly Cloudy
6:56 PM 70.9 °F - 64.9 °F 81% 30.00 in 10.0 mi ENE 9.2 mph - N/A   Mostly Cloudy
7:14 PM 69.8 °F - 66.2 °F 88% 30.05 in 10.0 mi NE 11.5 mph - N/A   Scattered Clouds
7:56 PM 68.9 °F - 65.8 °F 90% 30.01 in 10.0 mi East 5.8 mph - N/A   Mostly Cloudy
8:27 PM 69.8 °F - 64.4 °F 83% 30.08 in 10.0 mi East 3.5 mph - N/A   Mostly Cloudy
8:56 PM 68.9 °F - 65.8 °F 90% 30.02 in 10.0 mi ENE 5.8 mph - N/A   Overcast
9:18 PM 69.8 °F - 66.2 °F 88% 30.08 in 10.0 mi NNE 8.1 mph - N/A   Scattered Clouds
9:56 PM 68.0 °F - 65.8 °F 93% 30.03 in 10.0 mi NNE 8.1 mph - N/A   Clear
10:56 PM 65.8 °F - 64.9 °F 97% 30.03 in 10.0 mi NE 3.5 mph - N/A   Clear
11:56 PM 64.9 °F - 64.9 °F 100% 30.03 in 10.0 mi NE 3.5 mph - N/A   Clear